{"data":{"norad_id":59170,"epoch":"2026-09-20T20:55:51.746880Z","epoch_age_seconds":126641,"freshness":"FRESH","line1":"1 59170U 24044U   26263.87212670  .00000572  00000+0  30304-4 0  9995","line2":"2 59170  43.0041  45.1863 0001809 275.4228  84.6418 15.27583520143873","mean_motion":15.2758352,"eccentricity":0.0001809,"inclination_deg":43.0041,"raan_deg":45.1863,"arg_perigee_deg":275.4228,"mean_anomaly_deg":84.6418,"bstar":3.0304e-5,"rev_number":14387,"period_min":94.266531495443,"perigee_km":481.79736925551,"apogee_km":484.27974257164,"semimajor_km":6861.1755559136,"source":"CELESTRAK","updated_at":"2026-09-21T09:00:34.060303Z"}}